Location: Bílinka
(49.3579°N, 14.3767°E)
Time: 20:42:58
(UTC+00:00)

PSLV R/B - Pass Details

Date: 27 March 2025
Orbit: 410 x 442 km, 97.7° (Epoch: 28 April)

Event Time Altitude Azimuth Distance (km) Brightness Sun altitude
Exits shadow 20:52:08 17° 311° (NW) 1,200 6.3 -30.1°
Drops below altitude 10° 20:53:13 10° 324° (NW) 1,567 7.0 -30.2°
Sets 20:55:26 0° 337° (NNW) 2,432 8.2 -30.4°
